VE2EEG Weather Reports


time (UTC)temp
C
wind
direction
speed
KPH
gust
KPH
rain 1hr
cm
rain 24hr
cm
rain mn
cm
humidity
%
barometer
mb
20260507134503 6 281 4.8 11.3 0.00 0.15 0.00 89 1003.9
20260507134003 6 327 3.2 9.7 0.00 0.15 0.00 92 1003.8
20260507133503 5 250 4.8 9.7 0.00 0.15 0.00 91 1004.0
20260507133011 5 269 3.2 9.7 0.00 0.15 0.00 91 1004.0
20260507132503 5 272 3.2 8.0 0.00 0.15 0.00 92 1003.9
20260507132006 5 243 3.2 12.9 0.00 0.15 0.00 92 1004.1
20260507131514 4 317 4.8 12.9 0.00 0.15 0.00 91 1004.2
20260507131006 4 298 4.8 12.9 0.00 0.15 0.00 92 1004.2
20260507130508 4 253 4.8 14.5 0.00 0.15 0.00 92 1004.2
20260507130018 4 238 8.0 14.5 0.00 0.15 0.00 92 1004.2
20260507125508 4 238 4.8 11.3 0.00 0.15 0.00 93 1004.2
20260507125007 4 249 4.8 11.3 0.00 0.15 0.00 93 1004.2
20260507124524 4 264 4.8 16.1 0.00 0.15 0.00 93 1004.2
20260507124003 3 234 4.8 16.1 0.00 0.15 0.00 93 1004.1
20260507123503 3 261 9.7 14.5 0.00 0.15 0.00 92 1004.0
20260507123008 3 257 8.0 14.5 0.00 0.15 0.00 93 1004.0
20260507122504 3 234 8.0 12.9 0.00 0.15 0.00 93 1004.1
20260507122003 3 235 3.2 16.1 0.00 0.15 0.00 93 1004.0
20260507121513 3 275 4.8 16.1 0.00 0.15 0.00 93 1004.1
20260507121007 3 237 8.0 12.9 0.00 0.15 0.00 93 1004.1
20260507120503 3 229 6.4 14.5 0.00 0.15 0.00 93 1004.0
20260507120018 3 268 4.8 17.7 0.00 0.15 0.00 93 1004.1
20260507115506 3 268 4.8 17.7 0.00 0.15 0.00 93 1004.2
20260507115008 3 257 8.0 17.7 0.00 0.15 0.00 93 1004.2
20260507114520 3 268 6.4 16.1 0.00 0.15 0.00 93 1004.0
20260507114007 3 253 9.7 16.1 0.00 0.15 0.00 93 1004.2
20260507113508 4 236 6.4 12.9 0.00 0.15 0.00 93 1004.2
20260507113027 3 257 4.8 12.9 0.00 0.15 0.00 93 1004.2
20260507112504 4 238 4.8 12.9 0.00 0.15 0.00 93 1004.2
20260507112004 4 276 3.2 16.1 0.00 0.15 0.00 92 1004.1
20260507111516 4 260 6.4 17.7 0.00 0.15 0.00 92 1003.9
20260507111006 4 267 9.7 17.7 0.00 0.15 0.00 92 1003.8
20260507110502 4 263 8.0 17.7 0.00 0.15 0.00 91 1003.8
20260507110016 5 252 6.4 17.7 0.00 0.15 0.00 90 1003.9
20260507105504 5 245 9.7 16.1 0.00 0.15 0.00 91 1003.9
20260507105009 6 239 4.8 9.7 0.00 0.15 0.00 92 1003.7
20260507104520 5 240 3.2 6.4 0.00 0.15 0.00 92 1003.6
20260507104006 5 243 3.2 4.8 0.00 0.15 0.00 92 1003.6
20260507103506 5 213 1.6 4.8 0.00 0.15 0.00 92 1003.6
20260507103022 5 221 1.6 4.8 0.00 0.15 0.00 92 1003.5
20260507102506 5 247 1.6 4.8 0.00 0.15 0.00 92 1003.5
20260507102015 5 234 3.2 8.0 0.00 0.15 0.00 92 1003.6
20260507101509 5 227 3.2 8.0 0.00 0.15 0.00 92 1003.6
20260507101002 5 249 4.8 6.4 0.00 0.15 0.00 92 1003.5
20260507100505 5 239 1.6 3.2 0.00 0.15 0.00 92 1003.7
20260507100015 5 192 0.0 3.2 0.00 0.15 0.00 92 1003.8
20260507095508 5 192 1.6 3.2 0.00 0.15 0.00 92 1003.8
20260507095006 5 227 0.0 4.8 0.00 0.15 0.00 92 1003.7
20260507094518 5 247 3.2 9.7 0.00 0.15 0.00 92 1003.8
20260507094007 5 248 1.6 11.3 0.00 0.15 0.00 91 1003.9
20260507093515 5 263 4.8 11.3 0.00 0.15 0.00 91 1003.9
20260507093021 5 248 3.2 4.8 0.00 0.15 0.00 91 1003.9
20260507092507 5 282 3.2 9.7 0.00 0.15 0.00 91 1003.9
20260507092011 5 280 1.6 9.7 0.00 0.15 0.00 90 1003.8
20260507091535 5 265 3.2 8.0 0.00 0.15 0.00 90 1004.0
20260507091008 6 250 0.0 6.4 0.00 0.15 0.00 90 1003.9
20260507090507 6 250 1.6 6.4 0.00 0.15 0.00 90 1004.0
20260507090012 6 267 3.2 4.8 0.00 0.15 0.00 90 1004.0
20260507085503 6 263 1.6 3.2 0.00 0.15 0.00 90 1003.9
20260507085005 6 229 1.6 4.8 0.00 0.15 0.00 90 1003.9
20260507084534 6 254 3.2 4.8 0.00 0.15 0.00 89 1004.1
20260507084006 6 240 1.6 4.8 0.00 0.15 0.00 89 1004.1
20260507083511 6 311 0.0 3.2 0.00 0.15 0.00 89 1004.0
20260507083022 6 12 0.0 3.2 0.00 0.15 0.00 88 1004.0
20260507082508 6 46 0.0 3.2 0.00 0.15 0.00 88 1003.9
20260507082011 6 46 0.0 3.2 0.00 0.15 0.00 88 1003.8
20260507081528 6 46 0.0 3.2 0.00 0.15 0.00 88 1003.8
20260507081007 6 46 0.0 3.2 0.00 0.15 0.00 88 1003.7
20260507080511 6 46 0.0 3.2 0.00 0.15 0.00 88 1003.8
20260507080030 6 42 0.0 3.2 0.00 0.15 0.00 89 1003.8
20260507075508 6 71 1.6 3.2 0.00 0.15 0.00 88 1003.8
20260507075010 6 64 1.6 3.2 0.00 0.15 0.00 89 1003.9
20260507074512 6 64 0.0 3.2 0.00 0.15 0.00 88 1003.9
20260507074005 6 78 1.6 3.2 0.00 0.15 0.00 89 1004.0
20260507073503 6 78 0.0 3.2 0.00 0.15 0.00 89 1004.1
20260507073022 6 57 1.6 3.2 0.00 0.15 0.00 89 1004.1
20260507072507 6 42 1.6 3.2 0.00 0.15 0.00 89 1004.2
20260507072006 6 42 0.0 3.2 0.00 0.15 0.00 89 1004.2
20260507071525 6 42 0.0 1.6 0.00 0.15 0.00 89 1004.3
20260507071009 6 42 0.0 1.6 0.00 0.15 0.00 89 1004.3
20260507070510 6 42 0.0 0.0 0.00 0.15 0.00 89 1004.5
20260507070029 6 42 0.0 3.2 0.00 0.15 0.00 89 1004.5
20260507065507 6 42 0.0 3.2 0.00 0.15 0.00 89 1004.6
20260507065011 6 42 0.0 3.2 0.00 0.15 0.00 89 1004.5
20260507064531 6 38 0.0 3.2 0.00 0.15 0.00 89 1004.5
20260507064010 6 38 0.0 3.2 0.00 0.15 0.00 89 1004.5
20260507063503 6 57 0.0 3.2 0.00 0.15 0.00 89 1004.4
20260507063016 6 64 1.6 6.4 0.00 0.15 0.00 89 1004.2
20260507062507 6 52 3.2 6.4 0.00 0.15 0.00 89 1004.3
20260507062006 6 58 1.6 4.8 0.00 0.15 0.00 89 1004.4
20260507061520 6 85 3.2 6.4 0.00 0.15 0.00 89 1004.3
20260507061006 6 90 3.2 6.4 0.00 0.15 0.00 89 1004.4
20260507060506 6 72 3.2 6.4 0.00 0.15 0.00 89 1004.5
20260507060026 6 82 3.2 6.4 0.00 0.15 0.00 89 1004.6
20260507055508 6 60 4.8 6.4 0.00 0.15 0.00 90 1004.8
20260507055011 6 30 3.2 4.8 0.00 0.15 0.00 90 1004.8
20260507054527 6 57 1.6 4.8 0.00 0.15 0.00 90 1004.9
20260507054012 6 266 1.6 3.2 0.00 0.15 0.00 90 1005.1
20260507053511 6 266 0.0 4.8 0.00 0.15 0.00 90 1005.2
20260507053034 6 266 1.6 4.8 0.00 0.15 0.00 90 1005.3
20260507052510 6 266 0.0 3.2 0.00 0.15 0.00 90 1005.4
20260507052006 6 266 1.6 3.2 0.00 0.15 0.00 90 1005.4
20260507051514 6 266 0.0 3.2 0.00 0.15 0.00 91 1005.5
20260507051002 6 266 0.0 3.2 0.00 0.15 0.00 90 1005.6
20260507050506 6 266 0.0 3.2 0.00 0.15 0.00 90 1005.7
20260507050035 6 266 0.0 3.2 0.00 0.15 0.00 90 1005.7
20260507045504 6 266 0.0 3.2 0.00 0.15 0.00 90 1005.6
20260507045003 6 266 1.6 3.2 0.00 0.15 0.00 90 1005.4
20260507044514 6 261 0.0 3.2 0.00 0.15 0.00 90 1005.4
20260507044002 6 261 0.0 3.2 0.00 0.15 0.00 91 1005.5
20260507043502 6 261 0.0 3.2 0.00 0.15 0.00 91 1005.4
20260507043011 6 261 0.0 3.2 0.00 0.15 0.00 91 1005.3
20260507042504 7 261 0.0 3.2 0.00 0.15 0.00 91 1005.7
20260507042006 7 261 0.0 3.2 0.00 0.15 0.00 91 1005.8
20260507041514 7 261 0.0 3.2 0.00 0.15 0.00 91 1005.7
20260507041004 7 261 0.0 3.2 0.00 0.15 0.00 91 1005.6
20260507040505 7 261 0.0 3.2 0.00 0.15 0.00 91 1005.7
20260507040014 7 261 1.6 3.2 0.00 0.15 0.00 91 1005.8
20260507035502 7 259 0.0 3.2 0.00 0.15 0.15 91 1005.7
20260507035004 7 259 0.0 3.2 0.00 0.15 0.15 91 1005.6
20260507034520 7 259 0.0 3.2 0.00 0.15 0.15 91 1005.5
20260507034003 7 259 0.0 3.2 0.00 0.15 0.15 91 1005.6
20260507033507 7 259 0.0 3.2 0.00 0.15 0.15 91 1005.7
20260507033014 7 259 1.6 3.2 0.00 0.15 0.15 91 1005.8
20260507032502 7 189 0.0 3.2 0.00 0.15 0.15 91 1005.9
20260507032003 7 137 0.0 3.2 0.00 0.15 0.15 91 1006.0
20260507031516 7 137 0.0 3.2 0.00 0.15 0.15 91 1006.0
20260507031003 7 137 0.0 0.0 0.00 0.15 0.15 91 1005.9
20260507030509 7 137 0.0 3.2 0.00 0.15 0.15 91 1005.8
20260507030018 7 137 0.0 3.2 0.00 0.15 0.15 91 1005.9
20260507025503 7 137 0.0 3.2 0.00 0.15 0.15 91 1006.1
20260507025004 7 137 1.6 3.2 0.00 0.15 0.15 91 1006.3
20260507024516 7 90 0.0 3.2 0.00 0.15 0.15 91 1006.2
20260507024008 7 90 0.0 1.6 0.00 0.15 0.15 91 1006.3
20260507023503 7 91 0.0 0.0 0.00 0.15 0.15 91 1006.3
20260507023017 7 90 0.0 3.2 0.00 0.15 0.15 91 1006.5
20260507022504 7 91 0.0 3.2 0.00 0.15 0.15 91 1006.4
20260507022010 7 90 0.0 3.2 0.00 0.15 0.15 91 1006.5
20260507021528 7 90 0.0 3.2 0.00 0.15 0.15 91 1006.7
20260507021003 7 90 0.0 3.2 0.00 0.15 0.15 91 1006.8
20260507020507 7 90 0.0 3.2 0.00 0.15 0.15 91 1006.7
20260507020017 7 90 0.0 3.2 0.00 0.15 0.15 91 1006.9
20260507015507 7 90 0.0 0.0 0.00 0.15 0.15 90 1006.8
20260507015010 7 91 0.0 1.6 0.00 0.15 0.15 90 1006.7
20260507014521 7 90 0.0 3.2 0.00 0.15 0.15 90 1006.7
20260507014006 7 91 0.0 3.2 0.00 0.15 0.15 90 1006.9
20260507013504 7 91 0.0 3.2 0.00 0.15 0.15 90 1007.0
20260507013022 7 91 0.0 3.2 0.00 0.15 0.15 90 1007.0
20260507012507 7 90 0.0 3.2 0.00 0.15 0.15 90 1007.0
20260507012009 7 91 0.0 3.2 0.00 0.15 0.15 90 1007.2
20260507011522 7 91 0.0 3.2 0.00 0.15 0.15 90 1007.1
20260507011006 7 91 0.0 3.2 0.00 0.15 0.15 90 1007.2
20260507010508 7 91 0.0 3.2 0.00 0.15 0.15 90 1007.2
20260507010021 7 91 0.0 3.2 0.00 0.15 0.15 90 1007.3
20260507005507 7 90 0.0 3.2 0.00 0.15 0.15 89 1007.4
20260507005007 7 111 0.0 3.2 0.00 0.15 0.15 90 1007.3
20260507004521 7 122 0.0 3.2 0.00 0.15 0.15 90 1007.3
20260507004007 7 107 1.6 3.2 0.00 0.15 0.15 89 1007.3
20260507003507 7 191 0.0 3.2 0.00 0.15 0.15 89 1007.5
20260507003022 7 191 0.0 3.2 0.00 0.15 0.15 89 1007.6
20260507002507 7 191 0.0 3.2 0.00 0.15 0.15 89 1007.5
20260507002010 7 191 0.0 3.2 0.00 0.15 0.15 89 1007.2
20260507001523 7 193 1.6 3.2 0.00 0.15 0.15 89 1007.3
20260507001006 7 200 0.0 3.2 0.00 0.15 0.15 89 1007.3
20260507000506 7 238 0.0 4.8 0.00 0.18 0.15 89 1007.4
20260507000025 7 238 0.0 8.0 0.00 0.18 0.15 89 1007.3
20260506235509 7 244 3.2 8.0 0.00 0.18 0.15 89 1007.4
20260506235006 6 277 1.6 3.2 0.00 0.18 0.15 89 1007.4
20260506234515 6 277 0.0 4.8 0.00 0.18 0.15 89 1007.4
20260506234007 6 277 1.6 6.4 0.00 0.18 0.15 89 1007.4
20260506233507 6 277 1.6 6.4 0.00 0.18 0.15 89 1007.4
20260506233022 6 277 3.2 4.8 0.00 0.18 0.15 89 1007.3
20260506232506 6 253 1.6 4.8 0.00 0.18 0.15 90 1007.4
20260506232007 6 225 0.0 4.8 0.00 0.18 0.15 90 1007.3
20260506231522 6 217 1.6 8.0 0.00 0.18 0.15 90 1007.3
20260506231007 6 257 1.6 8.0 0.00 0.18 0.15 90 1007.2
20260506230507 6 245 3.2 9.7 0.00 0.18 0.15 90 1007.3
20260506230024 6 282 3.2 9.7 0.00 0.25 0.15 90 1007.4
20260506225506 7 279 0.0 3.2 0.00 0.28 0.15 91 1007.4
20260506225006 7 279 0.0 3.2 0.00 0.33 0.15 91 1007.4
20260506224521 7 279 1.6 3.2 0.00 0.36 0.15 91 1007.5
20260506224008 7 279 0.0 3.2 0.00 0.36 0.15 91 1007.6
20260506223505 7 279 0.0 3.2 0.00 0.36 0.15 91 1007.5
20260506223019 7 279 1.6 4.8 0.00 0.36 0.15 90 1007.5
20260506222506 7 279 1.6 4.8 0.00 0.36 0.15 90 1007.4
20260506222009 7 279 1.6 4.8 0.00 0.36 0.15 90 1007.5
20260506221524 7 279 3.2 6.4 0.00 0.36 0.15 90 1007.5
20260506221008 7 333 3.2 6.4 0.00 0.36 0.15 90 1007.5
20260506220508 7 328 1.6 3.2 0.00 0.36 0.15 91 1007.6
20260506220025 7 281 0.0 3.2 0.00 0.38 0.15 91 1007.6
20260506215507 7 281 1.6 3.2 0.00 0.56 0.15 91 1007.7
20260506215005 7 281 0.0 3.2 0.00 0.56 0.15 91 1007.7
20260506214510 7 281 0.0 4.8 0.00 0.56 0.15 91 1007.7
20260506214004 7 281 0.0 9.7 0.00 0.56 0.15 91 1007.7
20260506213507 7 281 3.2 9.7 0.00 0.56 0.13 90 1007.7
20260506213019 7 273 3.2 9.7 0.00 0.56 0.13 90 1007.5
20260506212505 7 274 3.2 9.7 0.00 0.56 0.13 90 1007.6
20260506212007 7 248 4.8 9.7 0.00 0.56 0.13 89 1007.5
20260506211532 7 280 3.2 16.1 0.00 0.56 0.13 89 1007.8
20260506211007 7 254 4.8 16.1 0.00 0.56 0.13 88 1007.8
20260506210508 7 250 1.6 6.4 0.00 0.56 0.13 89 1007.8
20260506210033 7 297 3.2 6.4 0.00 0.56 0.13 88 1007.8
20260506205507 7 281 3.2 9.7 0.00 0.56 0.13 87 1007.8
20260506205013 8 271 3.2 11.3 0.00 0.56 0.13 87 1007.8
20260506204528 8 281 4.8 11.3 0.00 0.56 0.13 86 1007.8
20260506204007 8 232 4.8 8.0 0.03 0.56 0.13 85 1007.8
20260506203504 8 229 4.8 6.4 0.03 0.56 0.13 86 1007.8
20260506203016 8 194 3.2 6.4 0.00 0.53 0.10 86 1007.7
20260506202506 8 207 3.2 8.0 0.03 0.53 0.10 86 1007.7
20260506202009 8 211 1.6 8.0 0.03 0.53 0.10 86 1007.6
20260506201532 8 186 3.2 9.7 0.03 0.53 0.10 87 1007.7
20260506201009 8 188 4.8 11.3 0.05 0.53 0.10 86 1007.8
20260506200508 8 180 4.8 11.3 0.05 0.53 0.10 87 1007.8
20260506200031 8 232 6.4 9.7 0.08 0.53 0.10 87 1007.7
20260506195511 8 201 6.4 9.7 0.08 0.53 0.10 86 1007.8
20260506195016 8 219 3.2 11.3 0.08 0.53 0.10 86 1007.8
20260506194526 8 221 6.4 11.3 0.08 0.53 0.10 86 1007.9
20260506194012 8 227 3.2 8.0 0.08 0.51 0.08 85 1007.9
20260506193510 8 217 3.2 11.3 0.08 0.51 0.08 85 1008.0
20260506193041 8 192 4.8 11.3 0.08 0.51 0.08 85 1008.0
20260506192505 8 199 3.2 12.9 0.08 0.48 0.08 85 1008.1
20260506192006 8 168 1.6 12.9 0.08 0.48 0.08 85 1008.1
20260506191515 8 170 6.4 12.9 0.08 0.48 0.08 84 1008.1
20260506191005 8 166 6.4 9.7 0.05 0.48 0.05 85 1008.1
20260506190508 8 156 3.2 9.7 0.05 0.51 0.05 85 1008.2
20260506190021 8 170 4.8 9.7 0.03 0.48 0.03 85 1008.1
20260506185507 8 221 4.8 11.3 0.03 0.48 0.03 85 1008.2
20260506185009 8 186 3.2 11.3 0.03 0.48 0.03 84 1008.2
20260506184525 8 141 6.4 14.5 0.00 0.46 0.00 83 1008.2
20260506184007 8 173 4.8 14.5 0.00 0.46 0.00 83 1008.3
20260506183508 8 163 4.8 12.9 0.00 0.46 0.00 82 1008.2
20260506183027 8 208 6.4 17.7 0.00 0.46 0.00 82 1008.2
20260506182507 9 173 9.7 17.7 0.00 0.46 0.00 81 1008.2
20260506182014 9 183 3.2 14.5 0.00 0.46 0.00 81 1008.2
20260506181533 9 188 6.4 14.5 0.00 0.46 0.00 79 1008.2
20260506181007 9 202 8.0 16.1 0.00 0.46 0.00 79 1008.3
20260506180507 9 172 6.4 17.7 0.00 0.46 0.00 78 1008.2
20260506180019 9 193 8.0 19.3 0.00 0.46 0.00 77 1008.3
20260506175511 10 175 11.3 24.1 0.00 0.46 0.00 74 1008.5
20260506175006 10 213 9.7 24.1 0.00 0.46 0.00 73 1008.5
20260506174523 10 162 9.7 24.1 0.00 0.46 0.00 72 1008.5
20260506174012 10 177 12.9 22.5 0.00 0.46 0.00 70 1008.6
20260506173514 10 188 6.4 19.3 0.00 0.46 0.00 71 1008.6
20260506173048 10 215 8.0 19.3 0.00 0.46 0.00 71 1008.6
20260506172507 10 222 11.3 19.3 0.00 0.46 0.00 71 1008.7
20260506172010 10 229 9.7 22.5 0.00 0.46 0.00 71 1008.7
20260506171537 10 192 9.7 22.5 0.00 0.46 0.00 70 1008.7
20260506171011 10 202 9.7 19.3 0.00 0.46 0.00 71 1008.7
20260506170508 10 247 11.3 19.3 0.00 0.46 0.00 72 1008.8
20260506170019 10 181 4.8 11.3 0.00 0.46 0.00 76 1008.8
20260506165508 9 253 4.8 6.4 0.00 0.46 0.00 79 1008.9
20260506165007 9 276 1.6 9.7 0.00 0.46 0.00 78 1009.0
20260506164524 10 279 1.6 9.7 0.00 0.46 0.00 78 1009.0
20260506164006 10 275 3.2 20.9 0.00 0.46 0.00 76 1009.0
20260506163510 10 262 4.8 20.9 0.00 0.46 0.00 75 1009.0
20260506163029 10 242 9.7 20.9 0.00 0.46 0.00 75 1008.9
20260506162509 10 252 6.4 19.3 0.00 0.46 0.00 77 1009.0
20260506162010 10 212 6.4 20.9 0.00 0.46 0.00 76 1009.0
20260506161528 10 223 14.5 20.9 0.00 0.46 0.00 74 1009.0
20260506161013 11 254 9.7 22.5 0.00 0.46 0.00 73 1009.0
20260506160512 11 259 12.9 22.5 0.00 0.46 0.00 73 1009.1
20260506160029 11 240 12.9 19.3 0.00 0.46 0.00 74 1009.1
20260506155510 11 202 8.0 14.5 0.00 0.46 0.00 77 1009.1
20260506155007 11 190 4.8 17.7 0.00 0.46 0.00 77 1009.1
20260506154523 10 207 4.8 17.7 0.00 0.46 0.00 78 1009.1
20260506154008 10 215 6.4 12.9 0.00 0.46 0.00 78 1009.1
20260506153506 10 173 3.2 11.3 0.00 0.46 0.00 78 1009.1
20260506153027 10 214 6.4 11.3 0.00 0.46 0.00 79 1009.0
20260506152509 10 157 6.4 12.9 0.00 0.46 0.00 79 1009.0
20260506152011 10 182 4.8 12.9 0.00 0.46 0.00 79 1009.0
20260506151528 10 262 6.4 12.9 0.00 0.46 0.00 79 1009.1
20260506151010 10 209 4.8 12.9 0.00 0.46 0.00 77 1009.0
20260506150510 10 166 6.4 12.9 0.00 0.46 0.00 76 1009.0
20260506150026 10 166 3.2 16.1 0.00 0.46 0.00 76 1009.1
20260506145509 10 201 9.7 16.1 0.00 0.46 0.00 74 1009.1
20260506145011 10 181 4.8 12.9 0.00 0.46 0.00 76 1009.1
20260506144528 10 226 6.4 14.5 0.00 0.46 0.00 77 1009.1
20260506144006 10 208 6.4 14.5 0.00 0.46 0.00 77 1009.0
20260506143510 10 182 6.4 14.5 0.00 0.46 0.00 77 1008.9
20260506143026 10 209 6.4 14.5 0.00 0.46 0.00 77 1008.8
20260506142507 10 190 8.0 14.5 0.00 0.46 0.00 77 1008.8
20260506142008 10 202 3.2 12.9 0.00 0.46 0.00 76 1008.9
20260506141525 10 182 4.8 11.3 0.00 0.46 0.00 75 1009.0
20260506141008 10 171 4.8 12.9 0.00 0.46 0.00 75 1009.0
20260506140511 10 184 4.8 16.1 0.00 0.46 0.00 76 1008.9
20260506140033 10 187 6.4 17.7 0.00 0.46 0.00 75 1008.9
20260506135511 11 242 9.7 17.7 0.00 0.46 0.00 74 1009.0
20260506135010 11 206 8.0 14.5 0.00 0.46 0.00 74 1008.9